Temperature
27 29 30 30 30 30 30 30 30 31 31 31 31 31 31 30 29 28 27 26 25 24 22 21 20 20 20 21 21 20 20 20 19 19 18 18 18 18 18 17 17 17 17 17
28 29 30 30 29 29 29 30 30 31 30 30 31 31 31 30 29 28 27 26 25 24 22 21 20 20 20 21 21 20 20 20 19 19 19 18 18 18 18 17 17 17 17 17
29 29 29 28 28 29 29 30 30 30 30 31 31 31 31 30 29 27 27 26 26 24 23 21 20 20 20 20 21 20 20 19 19 19 19 18 18 18 17 17 17 17 17 17
29 29 28 28 29 29 29 30 30 30 30 31 30 30 31 30 30 29 28 27 26 24 23 22 20 20 20 20 20 20 20 19 19 19 18 18 18 18 18 18 17 17 17 17
28 28 28 28 29 29 30 30 30 30 30 30 30 30 31 31 30 30 29 27 26 24 23 22 21 20 20 20 20 20 19 19 19 19 18 18 18 18 18 17 17 17 17 17
29 28 29 29 30 29 29 29 29 29 30 29 30 29 30 31 30 30 29 27 25 24 23 22 21 20 20 20 20 19 19 19 19 19 18 18 18 18 17 17 17 17 17 17
27 28 29 29 29 29 29 29 29 29 29 29 29 29 30 30 29 29 28 26 25 24 23 22 21 20 20 20 19 19 19 19 19 19 19 18 18 18 18 17 17 17 17 17
27 28 29 29 29 29 29 30 29 29 29 30 29 29 30 30 28 27 27 26 25 24 23 22 21 21 20 20 19 19 19 19 19 19 19 18 18 18 17 17 17 17 17 17
29 28 29 29 30 30 29 29 31 30 29 29 30 30 30 29 29 28 27 26 25 24 23 22 21 20 20 20 19 19 19 19 18 18 18 18 18 18 17 17 17 17 17 17
29 28 29 28 28 29 30 30 29 29 28 28 29 29 30 30 29 28 27 26 25 24 23 22 21 20 20 19 19 19 18 18 18 18 18 18 18 18 18 17 17 17 17 17
29 28 28 28 28 28 28 28 29 29 29 28 29 30 31 30 29 29 28 26 25 24 23 22 21 20 20 19 19 18 18 18 18 18 18 18 18 18 18 17 17 17 17 17
28 28 28 28 29 29 29 29 29 28 28 28 29 30 31 30 30 29 27 25 24 23 23 21 20 20 19 19 19 18 18 18 18 18 18 17 17 17 17 17 17 17 17 17
27 27 26 27 28 28 28 29 29 29 29 29 29 30 30 29 29 28 27 25 23 23 22 21 20 20 19 19 19 18 18 18 18 18 17 17 17 17 17 17 17 17 17 17
26 27 27 28 29 29 28 28 29 29 29 29 29 30 30 30 29 28 26 24 23 22 21 21 20 19 19 19 18 18 18 18 17 17 17 17 17 17 17 17 17 17 17 17
26 26 27 28 29 29 29 29 28 28 29 29 30 30 30 30 29 27 25 24 23 22 21 20 20 19 18 18 18 18 18 17 17 17 17 17 17 17 17 17 17 17 16 16
25 26 26 27 28 28 28 29 29 28 29 29 30 30 31 29 27 26 25 23 23 22 21 20 19 19 18 18 18 18 17 17 17 17 17 17 17 17 17 17 16 16 16 16
25 24 25 27 28 27 27 28 29 29 29 29 29 30 30 28 27 26 24 24 23 22 21 20 19 19 18 18 18 17 17 17 17 17 17 17 16 16 16 16 16 16 16 15
23 23 25 27 26 25 28 29 29 29 29 29 29 29 28 27 26 24 24 24 23 22 21 20 19 19 18 18 18 17 17 17 17 17 17 16 16 16 16 16 15 15 15 15
22 23 25 26 26 26 27 27 28 28 28 28 28 28 27 26 25 25 23 23 22 22 21 20 19 19 18 18 17 17 17 16 16 16 16 16 16 16 16 15 15 15 15 15
22 22 24 25 25 26 27 26 25 27 27 27 26 26 26 25 27 27 22 22 21 21 20 19 19 18 18 18 17 17 17 16 16 16 16 16 16 15 15 15 15 15 15 14
22 22 23 24 25 26 25 24 25 26 26 23 23 24 24 25 25 23 21 21 20 20 19 19 18 18 17 17 17 17 16 16 16 16 16 16 15 15 15 15 15 14 14 14
23 23 23 24 24 25 23 24 25 23 21 21 21 22 22 22 21 20 20 19 19 18 18 18 18 17 17 17 17 16 16 16 16 15 15 15 15 15 14 14 14 14 13 13
22 22 24 24 24 21 20 21 20 19 20 20 20 20 20 20 19 19 19 18 18 18 17 17 17 17 17 17 16 16 16 16 15 15 15 15 15 14 14 13 13 13 13 12
20 19 21 21 22 20 19 19 18 18 18 19 19 19 19 19 19 19 18 17 17 17 17 17 17 17 16 16 16 16 16 15 15 15 15 14 14 14 13 13 13 12 12 12
19 20 20 20 20 20 19 18 17 17 17 18 18 18 18 18 18 18 17 16 16 16 16 16 16 16 16 16 16 15 15 15 15 14 14 14 13 13 13 12 12 12 12 12
19 19 19 20 18 19 18 16 16 17 17 17 17 17 17 17 17 17 16 16 16 15 15 15 15 15 15 15 15 15 15 14 14 13 13 13 12 12 12 12 11 11 11 11
Wind_Speed
8 10 11 9 8 6 4 5 5 2 3 5 5 5 2 2 3 5 6 8 9 10 11 12 13 14 14 15 15 15 14 13 11 10 10 9 8 7 7 8 9 10 10 10
8 13 9 5 5 7 8 8 6 3 1 4 5 6 3 2 3 4 5 7 8 9 11 12 13 14 15 15 15 15 15 14 13 10 9 7 7 7 7 7 8 10 11 10
14 3 6 9 9 10 10 9 6 4 4 5 7 8 5 3 4 4 5 5 7 9 11 12 13 14 14 15 15 14 14 13 13 11 8 7 6 6 7 8 8 10 12 11
13 8 6 10 11 11 10 6 6 6 8 5 3 7 3 3 4 5 5 5 6 8 10 11 12 13 13 14 14 13 13 13 13 12 11 11 9 9 9 7 7 8 10 11
10 10 11 12 11 11 5 2 5 6 8 9 7 8 2 3 4 4 4 4 5 7 9 10 11 11 11 12 12 12 13 13 13 12 12 12 11 9 7 6 7 7 8 10
7 7 9 10 9 10 5 5 5 7 9 10 6 7 4 1 2 2 2 3 4 6 8 9 9 10 10 10 11 11 12 12 12 12 12 12 11 10 8 8 7 7 7 7
11 11 9 8 10 10 11 9 7 8 8 6 2 6 3 2 1 2 2 4 6 7 8 9 10 10 10 11 11 11 12 11 11 12 12 11 11 10 10 9 9 8 7 7
13 12 14 12 13 11 15 14 9 6 6 4 5 5 1 2 0 1 3 6 8 8 8 8 9 9 10 11 11 11 11 10 10 10 10 9 10 9 8 9 8 8 8 8
11 9 9 11 12 12 12 14 12 8 7 6 4 3 3 3 3 4 6 8 9 9 9 8 8 8 8 9 10 10 10 9 9 9 9 9 9 8 8 8 8 7 7 7
7 8 9 9 9 9 9 10 8 9 7 9 6 6 4 3 4 6 7 8 9 9 9 9 8 8 8 8 8 8 8 8 8 8 8 7 7 8 8 7 8 7 7 7
11 9 9 11 12 14 11 11 10 10 9 7 6 3 2 1 3 6 8 9 10 10 10 9 9 8 8 8 8 8 8 7 7 7 7 6 6 6 6 6 6 6 6 6
14 10 10 11 6 5 13 14 14 11 8 8 9 2 5 1 2 5 7 9 10 10 10 10 10 9 9 8 8 8 7 6 6 5 6 5 5 5 5 5 5 5 5 5
12 9 11 11 10 9 11 13 14 13 9 10 10 4 6 3 3 5 7 10 10 11 11 10 10 9 9 8 8 8 7 6 6 6 5 5 5 4 4 4 4 4 4 4
8 10 13 13 9 14 14 14 14 15 12 12 12 9 5 4 5 6 8 10 11 12 11 11 10 9 9 8 8 7 7 6 6 5 5 4 4 4 3 3 3 3 3 4
7 11 13 11 6 6 11 13 15 17 16 13 11 11 9 6 5 6 9 11 12 12 12 12 11 10 10 9 8 8 7 6 6 5 4 4 3 3 3 3 3 2 2 2
5 7 10 12 11 10 11 11 13 15 14 14 12 10 5 2 4 7 10 12 13 13 13 13 12 11 11 10 9 8 7 7 6 6 5 5 4 4 3 3 3 3 3 2
5 6 8 12 10 10 14 14 14 13 12 12 12 8 3 4 5 8 10 13 13 13 13 13 13 12 11 10 10 9 8 7 7 6 6 5 5 4 4 3 3 3 3 4
4 6 7 9 9 14 8 5 10 12 11 10 9 6 4 4 4 5 8 11 12 13 13 13 12 12 11 11 10 9 9 8 7 6 6 5 5 5 4 4 4 4 4 4
7 6 7 10 14 12 6 4 6 10 10 7 8 7 4 2 4 6 7 9 11 12 12 12 12 13 12 12 11 10 9 8 7 6 6 5 5 5 5 5 4 4 4 4
8 8 9 10 13 14 7 4 2 6 9 1 3 5 4 5 7 4 6 7 9 10 11 12 12 12 12 11 11 10 9 8 7 6 6 5 5 6 5 5 5 4 4 4
12 10 13 14 13 9 2 2 5 10 3 4 3 3 4 5 3 2 6 7 9 10 11 12 12 11 11 11 10 9 8 7 6 6 6 6 5 5 5 5 5 5 4 4
11 11 13 13 15 9 4 2 3 3 6 4 4 3 2 1 1 3 7 9 10 11 11 12 11 10 10 10 10 9 7 7 7 7 6 6 5 5 5 5 5 4 5 5
6 4 5 6 4 4 3 2 4 6 6 5 5 3 1 2 2 4 7 8 9 10 10 10 10 10 9 9 8 8 7 7 7 7 6 5 5 5 4 4 5 4 4 3
4 1 3 4 2 2 3 3 5 6 6 6 4 1 1 2 4 5 6 8 8 8 9 9 10 10 9 8 7 8 8 7 7 6 5 5 5 5 4 3 2 3 2 3
2 3 5 6 3 2 1 5 6 6 5 4 3 2 2 3 4 5 6 8 8 8 7 8 8 9 9 8 8 8 7 7 7 6 5 5 5 5 4 3 2 2 2 1
5 5 6 4 2 3 4 6 6 5 4 3 3 3 3 3 4 6 6 7 8 8 8 8 8 9 9 8 7 7 6 6 7 6 5 5 4 5 5 5 5 10 7 8
Wind_Direction
195 218 220 218 229 262 265 260 256 277 331 298 275 275 260 212 200 192 188 190 191 189 182 180 183 182 180 181 185 190 191 188 189 192 195 197 200 202 206 209 203 203 204 202
202 224 226 220 217 229 239 248 247 237 319 295 284 275 245 218 214 214 206 201 194 185 178 179 183 184 188 189 192 193 195 192 193 194 194 199 198 204 208 210 208 208 208 207
218 203 200 204 210 221 233 246 255 276 289 244 274 248 211 195 201 206 213 209 197 188 183 179 183 187 190 193 195 196 194 192 194 191 189 188 193 204 208 210 211 209 211 212
229 203 190 208 215 224 232 238 251 263 268 255 271 281 207 198 210 210 210 204 194 188 184 180 184 188 192 195 194 194 191 192 192 190 195 196 203 212 215 209 205 204 212 214
211 208 208 216 216 219 237 212 234 253 260 269 242 272 258 181 233 212 201 195 192 183 180 179 183 185 188 190 189 188 188 191 192 195 200 204 213 218 215 207 202 210 212 217
217 201 219 226 220 215 199 199 215 239 249 251 250 266 266 227 294 255 187 175 178 170 166 169 174 174 177 180 181 181 185 192 193 198 205 210 215 215 212 209 208 213 214 216
211 210 208 210 196 192 205 218 223 223 225 240 176 253 276 25 327 289 205 170 162 158 157 160 166 170 173 176 176 177 182 188 192 197 203 209 213 213 215 219 219 218 219 220
205 210 203 205 213 201 210 223 238 254 248 215 184 246 249 89 152 218 169 152 151 154 153 154 160 167 171 173 174 176 180 185 189 197 204 209 214 217 220 221 225 223 225 227
211 209 180 203 214 222 209 227 243 257 267 267 236 239 230 170 178 162 154 151 151 151 149 150 150 155 161 167 170 173 173 176 185 196 201 207 209 214 217 221 225 229 229 229
218 206 178 176 190 216 239 223 218 235 245 251 239 240 243 186 172 165 166 163 155 151 151 149 148 149 152 155 158 162 166 174 180 190 197 199 205 207 214 221 224 226 227 229
220 215 178 183 203 197 197 209 220 231 246 258 253 225 131 197 185 177 174 169 161 158 154 151 149 147 147 149 151 155 160 170 178 185 189 196 201 202 206 215 223 226 224 223
211 222 215 202 186 232 212 214 212 222 225 242 267 248 116 169 184 184 174 166 163 161 155 152 151 150 151 152 154 155 160 167 172 176 181 189 193 195 201 210 215 218 220 222
192 211 213 205 203 205 218 219 221 231 238 237 245 236 127 159 183 178 173 165 163 163 160 157 157 158 157 155 154 155 159 160 163 167 174 181 190 191 198 206 209 209 210 217
205 215 224 224 214 197 207 213 216 222 228 233 242 258 223 214 203 180 172 167 167 165 165 165 164 163 161 158 157 157 154 153 156 161 168 176 186 186 190 191 193 198 200 206
210 219 226 246 239 214 212 211 210 220 236 246 245 248 252 244 226 191 175 170 169 170 171 171 169 166 163 159 156 153 149 149 151 152 154 160 162 158 155 154 162 166 170 179
213 230 221 229 229 227 231 224 215 222 233 244 253 256 255 232 188 179 177 175 176 176 176 173 169 166 163 160 156 151 148 147 147 145 140 135 135 132 131 133 133 133 132 131
204 217 222 223 210 217 228 223 219 219 225 235 241 248 241 217 204 194 186 184 181 179 176 173 170 166 162 158 154 151 149 148 146 140 134 129 128 127 123 124 124 123 115 107
226 226 226 225 202 225 224 207 225 227 231 238 253 265 256 252 224 204 195 189 184 179 175 169 164 160 157 153 150 149 149 149 146 142 140 139 135 128 123 118 113 109 106 105
223 227 229 226 223 226 199 190 214 221 230 241 246 254 257 228 201 195 188 189 182 176 169 164 161 157 153 152 151 151 150 150 150 149 148 145 142 136 131 125 118 114 109 106
198 226 237 228 235 231 210 155 199 228 225 240 254 250 235 204 229 189 162 173 169 165 159 156 153 151 152 152 153 153 154 154 156 154 150 146 146 142 137 131 127 121 117 116
196 208 226 230 233 234 81 111 191 219 232 19 337 291 237 222 296 99 147 157 156 153 152 151 151 152 152 153 154 155 155 155 153 147 143 138 138 139 139 133 133 133 132 125
213 212 215 227 233 225 65 171 223 334 356 348 334 312 275 227 97 122 137 144 147 145 147 148 146 145 147 152 154 152 151 145 143 143 141 140 142 143 140 139 139 141 143 140
233 261 237 232 234 54 32 359 356 339 329 331 327 323 289 188 153 133 136 140 143 142 143 145 142 139 140 148 154 149 141 140 142 141 140 139 138 138 141 145 149 151 155 156
202 262 254 245 210 5 357 359 352 345 334 330 329 324 219 160 143 135 135 135 134 134 137 140 140 139 138 142 143 139 139 142 142 141 140 140 141 138 128 128 143 152 155 157
255 238 236 242 264 294 67 14 360 355 358 8 30 55 99 133 135 133 131 130 130 130 130 134 137 135 133 135 135 136 141 145 145 145 146 145 140 133 125 107 72 111 94 83
242 257 261 266 347 315 324 345 341 347 4 27 48 65 83 114 122 125 125 128 128 127 127 130 132 131 130 129 127 130 138 145 147 147 146 146 143 139 136 124 92 57 63 61
Height
1520 1517 1513 1510 1511 1512 1514 1515 1515 1512 1510 1509 1507 1506 1505 1508 1510 1512 1515 1517 1520 1523 1526 1528 1530 1532 1534 1537 1540 1543 1547 1549 1552 1554 1557 1560 1563 1565 1567 1569 1571 1572 1574 1576
1518 1514 1509 1512 1514 1515 1516 1517 1514 1511 1510 1510 1508 1505 1504 1507 1509 1511 1513 1515 1518 1521 1524 1526 1527 1529 1532 1534 1537 1540 1543 1546 1549 1551 1554 1558 1560 1562 1565 1567 1568 1570 1572 1574
1511 1509 1511 1514 1516 1517 1515 1515 1512 1513 1510 1507 1508 1505 1503 1504 1508 1510 1511 1513 1515 1518 1521 1523 1525 1527 1529 1532 1534 1537 1540 1543 1546 1549 1552 1555 1557 1559 1562 1563 1565 1567 1569 1572
1508 1509 1513 1513 1513 1514 1515 1509 1512 1513 1514 1508 1511 1513 1501 1501 1503 1506 1508 1511 1513 1516 1519 1521 1522 1525 1527 1529 1532 1535 1537 1540 1543 1546 1549 1552 1554 1556 1559 1560 1562 1565 1567 1569
1507 1507 1511 1512 1509 1511 1509 1510 1511 1512 1512 1513 1508 1513 1501 1498 1501 1501 1505 1509 1511 1514 1516 1518 1520 1522 1525 1528 1530 1532 1535 1537 1540 1543 1546 1549 1552 1554 1557 1559 1560 1562 1564 1566
1502 1507 1507 1505 1506 1509 1510 1512 1512 1511 1508 1520 1510 1515 1507 1496 1499 1499 1503 1507 1510 1512 1515 1517 1519 1521 1523 1525 1528 1530 1533 1535 1538 1541 1544 1546 1549 1552 1554 1556 1558 1560 1562 1563
1507 1505 1504 1505 1506 1509 1510 1515 1520 1521 1520 1516 1507 1512 1504 1496 1498 1500 1502 1506 1509 1511 1514 1515 1517 1519 1521 1523 1526 1528 1531 1533 1536 1539 1541 1544 1546 1549 1551 1553 1555 1557 1558 1560
1506 1505 1500 1501 1501 1503 1506 1506 1518 1524 1519 1509 1511 1509 1498 1496 1499 1501 1502 1505 1509 1511 1513 1515 1516 1518 1520 1522 1524 1527 1529 1532 1535 1537 1539 1542 1544 1546 1548 1550 1552 1553 1555 1556
1495 1498 1494 1496 1497 1498 1503 1503 1494 1505 1510 1514 1505 1501 1495 1495 1497 1500 1502 1505 1508 1511 1513 1515 1516 1518 1520 1522 1524 1526 1528 1530 1532 1535 1538 1540 1542 1543 1545 1547 1548 1550 1551 1553
1488 1497 1494 1496 1499 1500 1496 1495 1502 1507 1521 1522 1511 1506 1499 1494 1495 1498 1501 1504 1508 1511 1513 1515 1517 1518 1520 1522 1523 1525 1528 1529 1531 1534 1536 1538 1539 1540 1542 1544 1545 1547 1548 1549
1487 1495 1495 1496 1498 1497 1502 1502 1499 1500 1501 1513 1515 1505 1486 1490 1492 1496 1499 1503 1507 1510 1513 1515 1517 1518 1520 1522 1523 1525 1527 1529 1531 1533 1534 1536 1537 1538 1540 1541 1542 1543 1545 1546
1487 1490 1492 1490 1488 1488 1490 1492 1497 1506 1509 1506 1506 1500 1485 1488 1491 1494 1498 1503 1506 1509 1512 1515 1517 1519 1520 1522 1524 1525 1527 1529 1530 1532 1533 1534 1536 1537 1538 1539 1540 1541 1541 1543
1487 1491 1501 1499 1497 1494 1492 1490 1490 1493 1498 1502 1506 1498 1486 1489 1491 1494 1498 1502 1505 1509 1512 1514 1517 1519 1521 1522 1524 1526 1527 1528 1529 1531 1532 1533 1534 1535 1536 1537 1538 1538 1539 1540
1488 1487 1490 1491 1484 1482 1490 1489 1489 1492 1496 1498 1497 1491 1485 1486 1489 1493 1497 1501 1504 1508 1510 1513 1515 1518 1520 1521 1523 1525 1527 1528 1529 1530 1531 1531 1532 1533 1534 1535 1536 1537 1537 1538
1486 1486 1484 1479 1476 1478 1480 1483 1486 1490 1487 1490 1487 1485 1482 1482 1487 1491 1496 1499 1503 1506 1509 1511 1514 1516 1518 1520 1522 1524 1526 1527 1528 1529 1530 1530 1531 1532 1533 1534 1534 1535 1535 1536
1487 1484 1483 1484 1478 1479 1481 1480 1482 1484 1483 1483 1483 1482 1478 1482 1487 1491 1494 1497 1500 1503 1506 1509 1512 1514 1517 1519 1521 1523 1525 1526 1527 1529 1529 1530 1530 1531 1532 1533 1533 1534 1534 1534
1484 1487 1487 1482 1478 1483 1486 1478 1478 1479 1478 1479 1482 1479 1479 1483 1485 1488 1491 1494 1497 1501 1504 1507 1510 1512 1515 1518 1520 1522 1524 1526 1527 1528 1529 1529 1530 1531 1531 1532 1533 1533 1533 1533
1488 1488 1484 1479 1486 1497 1476 1469 1471 1474 1475 1475 1477 1477 1480 1483 1485 1488 1490 1492 1495 1499 1502 1506 1509 1511 1514 1516 1519 1521 1523 1525 1526 1528 1529 1529 1530 1530 1531 1531 1532 1532 1532 1533
1488 1488 1482 1480 1484 1480 1474 1473 1473 1475 1476 1475 1476 1478 1481 1483 1485 1486 1489 1491 1494 1497 1501 1504 1507 1510 1513 1516 1518 1520 1522 1524 1526 1527 1528 1529 1529 1530 1530 1531 1531 1531 1532 1532
1488 1488 1484 1481 1484 1485 1473 1473 1477 1478 1479 1477 1478 1479 1480 1482 1480 1481 1487 1490 1493 1496 1500 1503 1506 1509 1512 1514 1517 1519 1521 1523 1524 1526 1527 1527 1528 1529 1530 1530 1530 1531 1531 1531
1484 1486 1484 1481 1481 1472 1473 1476 1478 1484 1480 1481 1480 1481 1481 1481 1482 1485 1487 1490 1492 1495 1498 1502 1505 1508 1511 1513 1516 1518 1520 1521 1523 1524 1525 1526 1527 1528 1529 1529 1529 1530 1530 1531
1476 1476 1481 1479 1481 1478 1477 1477 1477 1480 1482 1482 1482 1482 1482 1483 1484 1485 1486 1489 1492 1494 1497 1500 1504 1507 1509 1512 1515 1517 1519 1520 1521 1523 1524 1525 1526 1527 1528 1528 1528 1529 1529 1530
1476 1475 1471 1474 1477 1481 1481 1482 1483 1484 1483 1483 1482 1482 1483 1483 1485 1486 1487 1489 1492 1494 1496 1499 1502 1505 1508 1511 1513 1515 1517 1518 1520 1521 1522 1524 1524 1525 1526 1527 1527 1528 1528 1529
1479 1482 1479 1479 1477 1481 1483 1483 1484 1484 1484 1483 1483 1482 1483 1483 1484 1486 1488 1489 1491 1493 1496 1499 1501 1503 1506 1509 1511 1513 1515 1517 1518 1519 1521 1522 1523 1523 1524 1525 1526 1527 1527 1528
1481 1481 1479 1480 1481 1482 1483 1485 1485 1484 1484 1483 1483 1483 1483 1484 1485 1486 1488 1489 1491 1493 1495 1498 1500 1502 1504 1507 1509 1511 1513 1515 1516 1518 1519 1520 1521 1521 1522 1523 1524 1525 1526 1526
1483 1483 1481 1479 1484 1485 1485 1486 1485 1485 1484 1483 1483 1483 1483 1484 1485 1486 1488 1490 1492 1493 1495 1497 1500 1501 1503 1505 1507 1509 1511 1513 1514 1516 1517 1518 1519 1519 1520 1521 1522 1522 1523 1524